Weather in Lermontovo

Russia / Penza Oblast     52°59′33″N   43°39′30″E
temp.,
°C
wind,
m/s
gust,
m/s
humid.,
%
clouds,
%
prec.,
mm/h
press.,
hPa
HPBL,
m
27 february, sat
sat2700:00+1w61394100 0.0 1003529
03:00+1w7149397 0.1 1003650
06:00+1w71395100 0.1 1001724
09:000w71297100 0.1 1001763
12:00+1w71397100 0.1 1000784
15:00−5nnw91290100 0.9 1003652
18:00−10nnw71290100 0.1 1006640
21:00−12nnw61291100 0.2 1010657
28 february, sun
sun2800:00−14nnw51193100 0.0 1011429
03:00−16nw4109593 0.1 1013257
06:00−17nw489634 0.0 1014190
09:00−15nnw489317 0.0 1015330
12:00−12nnw469083 0.0 1015434
15:00−11nw469192 0.0 1016488
18:00−13nw2395100 0.0 101627
21:00−14nnw239696 0.1 101920
1 march, mon
mon100:00−15n239767 0.0 102020
03:00−16nnw229642 0.0 102220
06:00−17nnw23950 0.0 102321
09:00−15nnw23940 0.0 1025102
12:00−11nw238948 0.0 1025275
15:00−9w349272 0.0 1025326
18:00−12wsw339650 0.0 102426
21:00−11wsw369864 0.1 102394
2 march, tue
tue200:00−7wsw51396100 0.1 1021356
03:00−4sw71394100 0.3 1017485
06:00−3wsw81596100 1.0 1012590
09:00−2wsw81496100 2.7 1009707
12:000wnw71298100 1.3 1007704
15:000nw61188100 1.8 1007819
18:00−2nw6139190 0.3 1008581
21:00−5wnw5119559 0.3 1009227
3 march, wed
wed300:00−3wnw61395100 0.1 1008578
03:00−4nw6139497 0.3 1009506
06:00−3nw61192100 0.1 1010730
09:00−4nw6119299 0.3 1011740
12:00−3nw71087100 0.1 1012785
15:00−2nw7119199 0.2 1013978
18:00−6nw6139063 0.1 1014379
21:00−6wnw5119475 0.1 1016333